OAL458 LIRF-LCLK

Flight info

Callsign OAL458
Flight time N/A
Altitude 35000
Route PEPIX L50 UNIXO DCT RUTOM DCT TRL DCT EVENO DCT DASNI DCT BONEK
Aircraft A320/M-SDE3FGHIRWY/LB1

Departure

Time N/A
Airport Rome–Fiumicino Leonardo da Vinci International Airport (LIRF)

Arrival

Time 2026-05-07 15:37
Airport Larnaca International Airport (LCLK)
Time Latitude Longitude Altitude Speed Heading
2026-05-07 14:48 36.34043 27.84678 36333 ft 445 kts 104°
2026-05-07 14:48 36.33158 27.88387 36029 ft 457 kts 106°
2026-05-07 14:49 36.32049 27.92193 35513 ft 479 kts 110°
2026-05-07 14:49 36.30852 27.96042 35274 ft 492 kts 109°
2026-05-07 14:49 36.29655 28.00136 35085 ft 501 kts 107°
2026-05-07 14:49 36.28587 28.04267 35148 ft 505 kts 105°
2026-05-07 14:50 36.26730 28.12700 35138 ft 507 kts 102°
2026-05-07 14:50 36.24988 28.21168 35138 ft 508 kts 103°
2026-05-07 14:51 36.23819 28.26587 35138 ft 508 kts 103°
2026-05-07 14:51 36.23207 28.30667 34922 ft 504 kts 98°
2026-05-07 14:51 36.22429 28.34892 35110 ft 504 kts 103°
2026-05-07 14:52 36.20309 28.43169 35137 ft 509 kts 107°
2026-05-07 14:52 36.18073 28.51533 35143 ft 509 kts 105°
2026-05-07 14:53 36.16117 28.59880 35147 ft 508 kts 103°
2026-05-07 14:53 36.14284 28.68328 35151 ft 508 kts 103°
2026-05-07 14:54 36.12407 28.76751 35155 ft 508 kts 104°
2026-05-07 14:54 36.10460 28.85162 35156 ft 508 kts 104°
2026-05-07 14:55 36.08508 28.93565 35158 ft 508 kts 104°
2026-05-07 14:55 36.06554 29.01964 35160 ft 508 kts 104°
2026-05-07 14:56 36.04600 29.10360 35159 ft 508 kts 104°
2026-05-07 14:56 36.02642 29.18745 35159 ft 508 kts 104°
2026-05-07 14:57 36.00685 29.27129 35162 ft 508 kts 104°
2026-05-07 14:57 35.98719 29.35516 35160 ft 508 kts 104°
2026-05-07 14:58 35.96755 29.43833 35160 ft 508 kts 104°
2026-05-07 14:58 35.94769 29.52207 35160 ft 508 kts 104°
2026-05-07 14:59 35.92782 29.60575 35155 ft 508 kts 104°
2026-05-07 14:59 35.90788 29.68945 35155 ft 508 kts 104°
2026-05-07 15:00 35.88798 29.77306 35155 ft 508 kts 104°
2026-05-07 15:00 35.86792 29.85665 35154 ft 508 kts 104°
2026-05-07 15:01 35.85930 29.88685 35067 ft 510 kts 116°
2026-05-07 15:01 35.84877 29.91246 35170 ft 503 kts 112°
2026-05-07 15:01 35.82739 29.99453 35139 ft 503 kts 99°
2026-05-07 15:02 35.81277 30.07882 35130 ft 504 kts 99°
2026-05-07 15:02 35.79464 30.16246 35136 ft 507 kts 104°
2026-05-07 15:03 35.77277 30.24508 35138 ft 508 kts 106°
2026-05-07 15:03 35.75046 30.32762 35146 ft 508 kts 105°
2026-05-07 15:04 35.72913 30.41046 35140 ft 508 kts 104°
2026-05-07 15:04 35.70831 30.49350 35143 ft 508 kts 104°
2026-05-07 15:05 35.68731 30.57650 35150 ft 508 kts 104°
2026-05-07 15:05 35.66602 30.65938 35151 ft 508 kts 104°
2026-05-07 15:06 35.64472 30.74159 35149 ft 508 kts 104°
2026-05-07 15:06 35.62327 30.82436 35151 ft 508 kts 104°
2026-05-07 15:07 35.60202 30.90707 35150 ft 507 kts 104°
2026-05-07 15:07 35.58132 30.98995 35146 ft 507 kts 103°
2026-05-07 15:08 35.56065 31.07274 35146 ft 507 kts 104°
2026-05-07 15:08 35.53984 31.15541 35146 ft 507 kts 104°
2026-05-07 15:09 35.51888 31.23796 35152 ft 506 kts 104°
2026-05-07 15:09 35.49779 31.32037 35147 ft 506 kts 104°
2026-05-07 15:10 35.47673 31.40275 35145 ft 506 kts 104°
2026-05-07 15:10 35.45567 31.48506 35146 ft 506 kts 104°
2026-05-07 15:11 35.43450 31.56731 35146 ft 505 kts 104°
2026-05-07 15:11 35.41345 31.64889 35146 ft 505 kts 104°
2026-05-07 15:12 35.39221 31.73094 35148 ft 505 kts 104°
2026-05-07 15:12 35.37097 31.81293 35147 ft 504 kts 104°
2026-05-07 15:13 35.34963 31.89478 35147 ft 504 kts 104°
2026-05-07 15:13 35.33899 31.93541 34653 ft 497 kts 104°
2026-05-07 15:13 35.32843 31.97573 33195 ft 498 kts 104°
2026-05-07 15:14 35.31783 32.01620 31625 ft 500 kts 105°
2026-05-07 15:14 35.30722 32.05673 30019 ft 501 kts 105°
2026-05-07 15:14 35.29656 32.09746 28089 ft 502 kts 105°
2026-05-07 15:14 35.28589 32.13823 26087 ft 504 kts 105°
2026-05-07 15:15 35.27512 32.17914 24521 ft 501 kts 105°
2026-05-07 15:15 35.26451 32.21925 23171 ft 491 kts 105°
2026-05-07 15:15 35.25409 32.25860 21726 ft 481 kts 105°
2026-05-07 15:15 35.24389 32.29707 20390 ft 472 kts 106°
2026-05-07 15:16 35.23383 32.33492 19140 ft 462 kts 106°
2026-05-07 15:16 35.22401 32.37193 17849 ft 453 kts 106°
2026-05-07 15:16 35.21436 32.40819 16593 ft 443 kts 106°
2026-05-07 15:16 35.20492 32.44362 15707 ft 435 kts 106°
2026-05-07 15:17 35.19559 32.47861 15363 ft 432 kts 107°
2026-05-07 15:17 35.18635 32.51336 14980 ft 424 kts 107°
2026-05-07 15:17 35.17733 32.54723 13931 ft 415 kts 107°
2026-05-07 15:17 35.16849 32.58033 12768 ft 405 kts 107°
2026-05-07 15:18 35.15980 32.61278 11766 ft 398 kts 107°
2026-05-07 15:18 35.15120 32.64483 11361 ft 397 kts 106°
2026-05-07 15:18 35.14273 32.67638 11178 ft 396 kts 106°
2026-05-07 15:18 35.13402 32.70883 11097 ft 397 kts 106°
2026-05-07 15:19 35.12554 32.74037 11111 ft 396 kts 106°
2026-05-07 15:19 35.11693 32.77234 11111 ft 396 kts 106°
2026-05-07 15:19 35.10856 32.80330 10944 ft 368 kts 107°
2026-05-07 15:19 35.10071 32.83218 10342 ft 351 kts 106°
2026-05-07 15:20 35.09317 32.85998 9847 ft 334 kts 106°
2026-05-07 15:20 35.08616 32.88583 9711 ft 308 kts 105°
2026-05-07 15:20 35.07965 32.90989 9435 ft 292 kts 105°
2026-05-07 15:20 35.07339 32.93316 9028 ft 284 kts 105°
2026-05-07 15:21 35.06715 32.95589 8437 ft 282 kts 106°
2026-05-07 15:21 35.06072 32.97845 7868 ft 280 kts 106°
2026-05-07 15:21 35.05427 33.00076 7307 ft 278 kts 107°
2026-05-07 15:21 35.04787 33.02284 6775 ft 275 kts 106°
2026-05-07 15:22 35.04153 33.04468 6234 ft 272 kts 106°
2026-05-07 15:22 35.03528 33.06628 5994 ft 271 kts 106°
2026-05-07 15:22 35.02898 33.08804 5977 ft 273 kts 106°
2026-05-07 15:22 35.02264 33.10997 5949 ft 273 kts 106°
2026-05-07 15:23 35.01639 33.13163 5454 ft 270 kts 106°
2026-05-07 15:23 35.01020 33.15317 5045 ft 267 kts 106°
2026-05-07 15:23 35.00411 33.17442 4967 ft 270 kts 107°
2026-05-07 15:23 34.99786 33.19617 4976 ft 273 kts 107°
2026-05-07 15:24 34.99155 33.21807 4975 ft 273 kts 107°
2026-05-07 15:24 34.98525 33.23985 4836 ft 270 kts 107°
2026-05-07 15:24 34.97899 33.26138 4235 ft 269 kts 107°
2026-05-07 15:24 34.97279 33.28265 3997 ft 267 kts 107°
2026-05-07 15:25 34.96656 33.30411 3984 ft 270 kts 107°
2026-05-07 15:25 34.96032 33.32571 3975 ft 270 kts 107°
2026-05-07 15:25 34.95407 33.34731 3978 ft 270 kts 107°
2026-05-07 15:25 34.94778 33.36890 3979 ft 270 kts 108°
2026-05-07 15:26 34.94148 33.39050 3978 ft 270 kts 107°
2026-05-07 15:26 34.93523 33.41186 3564 ft 266 kts 108°
2026-05-07 15:26 34.92906 33.43300 3079 ft 262 kts 108°
2026-05-07 15:26 34.92296 33.45397 2968 ft 264 kts 107°
2026-05-07 15:27 34.91687 33.47487 2959 ft 265 kts 107°
2026-05-07 15:27 34.91081 33.49565 2663 ft 253 kts 108°
2026-05-07 15:27 34.90510 33.51507 2531 ft 234 kts 108°
2026-05-07 15:27 34.89980 33.53308 2348 ft 219 kts 108°
2026-05-07 15:28 34.89489 33.54987 2234 ft 202 kts 107°
2026-05-07 15:28 34.89038 33.56527 2125 ft 185 kts 107°
2026-05-07 15:28 34.88628 33.57936 2032 ft 170 kts 107°
2026-05-07 15:28 34.88245 33.59251 1999 ft 157 kts 107°
2026-05-07 15:29 34.87969 33.60495 1991 ft 149 kts 95°
2026-05-07 15:29 34.87954 33.61738 1981 ft 145 kts 81°
2026-05-07 15:29 34.88181 33.62927 1978 ft 144 kts 67°
2026-05-07 15:29 34.88621 33.63996 1882 ft 138 kts 54°
2026-05-07 15:30 34.89239 33.64896 1512 ft 139 kts 40°
2026-05-07 15:30 34.89933 33.65708 1497 ft 141 kts 42°
2026-05-07 15:30 34.90642 33.66553 1480 ft 143 kts 43°
2026-05-07 15:30 34.91350 33.67400 1486 ft 143 kts 43°
2026-05-07 15:31 34.92059 33.68247 1483 ft 142 kts 43°
2026-05-07 15:31 34.92765 33.69092 1490 ft 142 kts 42°
2026-05-07 15:31 34.93462 33.69926 1487 ft 142 kts 43°
2026-05-07 15:31 34.94166 33.70769 1487 ft 142 kts 42°
2026-05-07 15:32 34.94870 33.71611 1482 ft 142 kts 42°
2026-05-07 15:32 34.95576 33.72455 1488 ft 142 kts 43°
2026-05-07 15:32 34.96287 33.73293 1482 ft 142 kts 38°
2026-05-07 15:32 34.97172 33.73733 1480 ft 139 kts
2026-05-07 15:33 34.98070 33.73380 1481 ft 139 kts 321°
2026-05-07 15:33 34.98566 33.72386 1487 ft 142 kts 281°
2026-05-07 15:33 34.98397 33.71215 1479 ft 145 kts 239°
2026-05-07 15:33 34.97618 33.70468 1484 ft 146 kts 196°
2026-05-07 15:34 34.96600 33.70484 1480 ft 148 kts 172°
2026-05-07 15:34 34.95571 33.70541 1474 ft 149 kts 180°
2026-05-07 15:34 34.94541 33.70483 1477 ft 148 kts 193°
2026-05-07 15:34 34.93609 33.69981 1371 ft 146 kts 219°
2026-05-07 15:35 34.92881 33.69134 1232 ft 144 kts 226°
2026-05-07 15:35 34.92179 33.68274 1065 ft 142 kts 226°
2026-05-07 15:35 34.91484 33.67423 901 ft 140 kts 225°
2026-05-07 15:35 34.90799 33.66584 727 ft 138 kts 224°
2026-05-07 15:36 34.90125 33.65760 552 ft 137 kts 224°
2026-05-07 15:36 34.89457 33.64942 389 ft 135 kts 224°
2026-05-07 15:36 34.88799 33.64143 215 ft 134 kts 224°
2026-05-07 15:36 34.88138 33.63330 41 ft 135 kts 225°
2026-05-07 15:37 34.87546 33.62612 21 ft 104 kts 225°
2026-05-07 15:37 34.87100 33.62062 23 ft 74 kts 225°
2026-05-07 15:37 34.86977 33.61822 22 ft 17 kts 255°
2026-05-07 15:37 34.86942 33.61672 21 ft 20 kts 255°
2026-05-07 15:38 34.86903 33.61498 23 ft 23 kts 254°
2026-05-07 15:38 34.86846 33.61387 20 ft 17 kts 224°
2026-05-07 15:38 34.86759 33.61280 20 ft 19 kts 225°
2026-05-07 15:38 34.86662 33.61162 21 ft 18 kts 225°
2026-05-07 15:39 34.86652 33.61058 22 ft 15 kts 314°
2026-05-07 15:39 34.86682 33.61022 20 ft 3 kts 316°
2026-05-07 15:39 34.86705 33.60994 20 ft 6 kts 315°
2026-05-07 15:39 34.86741 33.60951 20 ft 9 kts 315°
2026-05-07 15:40 34.86790 33.60893 21 ft 8 kts 315°
2026-05-07 15:40 34.86837 33.60842 20 ft 10 kts 338°
2026-05-07 15:40 34.86890 33.60875 22 ft 7 kts 43°
2026-05-07 15:40 34.86907 33.60895 20 ft 1 kts 46°